| time (UTC) | temp C | wind direction | speed KPH | gust KPH | rain 1hr cm | rain 24hr cm | rain mn cm | humidity % | barometer mb |
| 20260502152330 | 17 | 5 | 17.7 | 22.5 | 0.00 | 0.08 | 0.00 | 76 | 1022.5 |
| 20260502151326 | 17 | 15 | 19.3 | 24.1 | 0.00 | 0.08 | 0.00 | 77 | 1022.4 |
| 20260502150324 | 17 | 5 | 17.7 | 24.1 | 0.00 | 0.08 | 0.00 | 78 | 1022.4 |
| 20260502130325 | 15 | 355 | 19.3 | 24.1 | 0.00 | 0.08 | 0.00 | 85 | 1020.7 |
| 20260502123331 | 15 | 5 | 17.7 | 22.5 | 0.00 | 0.08 | 0.00 | 86 | 1020.4 |
| 20260502122324 | 15 | 355 | 17.7 | 24.1 | 0.00 | 0.08 | 0.00 | 86 | 1020.3 |
| 20260502121323 | 15 | 360 | 19.3 | 25.7 | 0.00 | 0.08 | 0.00 | 86 | 1020.2 |
| 20260502120316 | 14 | 355 | 20.9 | 25.7 | 0.00 | 0.08 | 0.00 | 86 | 1020.0 |
| 20260502115329 | 14 | 355 | 20.9 | 25.7 | 0.00 | 0.08 | 0.00 | 87 | 1019.8 |
| 20260502114324 | 14 | 5 | 20.9 | 25.7 | 0.00 | 0.08 | 0.00 | 87 | 1019.7 |
| 20260502113321 | 15 | 360 | 19.3 | 24.1 | 0.00 | 0.08 | 0.00 | 87 | 1019.5 |
| 20260502112335 | 14 | 5 | 17.7 | 25.7 | 0.00 | 0.08 | 0.00 | 87 | 1019.3 |
| 20260502111327 | 14 | 5 | 20.9 | 25.7 | 0.00 | 0.08 | 0.00 | 86 | 1019.3 |
| 20260502110325 | 14 | 350 | 17.7 | 22.5 | 0.00 | 0.08 | 0.00 | 86 | 1019.3 |
| 20260502105318 | 14 | 355 | 14.5 | 22.5 | 0.00 | 0.08 | 0.00 | 86 | 1019.2 |
| 20260502104331 | 14 | 9 | 17.7 | 24.1 | 0.00 | 0.08 | 0.00 | 86 | 1019.1 |
| 20260502103324 | 14 | 14 | 17.7 | 25.7 | 0.00 | 0.08 | 0.00 | 87 | 1019.1 |
| 20260502102322 | 14 | 355 | 20.9 | 25.7 | 0.00 | 0.08 | 0.00 | 87 | 1019.1 |
| 20260502101316 | 14 | 5 | 20.9 | 27.4 | 0.00 | 0.08 | 0.00 | 87 | 1019.0 |
| 20260502100330 | 14 | 5 | 24.1 | 29.0 | 0.00 | 0.08 | 0.00 | 87 | 1018.9 |
| 20260502091325 | 14 | 360 | 19.3 | 24.1 | 0.00 | 0.08 | 0.00 | 87 | 1018.3 |
| 20260502090319 | 14 | 355 | 19.3 | 25.7 | 0.00 | 0.08 | 0.00 | 87 | 1018.1 |
| 20260502071315 | 13 | 61 | 9.7 | 19.3 | 0.00 | 0.08 | 0.00 | 87 | 1017.6 |
| 20260502070329 | 13 | 30 | 12.9 | 19.3 | 0.00 | 0.08 | 0.00 | 87 | 1017.6 |
| 20260502065325 | 13 | 30 | 12.9 | 17.7 | 0.00 | 0.08 | 0.00 | 87 | 1017.7 |
| 20260502064319 | 13 | 44 | 12.9 | 19.3 | 0.00 | 0.08 | 0.00 | 87 | 1017.7 |
| 20260502063333 | 13 | 37 | 12.9 | 22.5 | 0.00 | 0.08 | 0.00 | 87 | 1017.8 |
| 20260502062330 | 13 | 20 | 16.1 | 20.9 | 0.00 | 0.08 | 0.08 | 87 | 1017.9 |
| 20260502061322 | 13 | 24 | 14.5 | 24.1 | 0.00 | 0.08 | 0.08 | 87 | 1018.0 |
| 20260502060316 | 13 | 42 | 12.9 | 19.3 | 0.00 | 0.08 | 0.08 | 87 | 1018.0 |
| 20260502055316 | 13 | 28 | 12.9 | 19.3 | 0.00 | 0.08 | 0.08 | 87 | 1018.1 |
| 20260502054331 | 13 | 22 | 14.5 | 20.9 | 0.00 | 0.08 | 0.08 | 87 | 1018.1 |
| 20260502053327 | 13 | 42 | 11.3 | 17.7 | 0.00 | 0.08 | 0.08 | 87 | 1018.1 |
| 20260502052320 | 13 | 24 | 12.9 | 22.5 | 0.00 | 0.08 | 0.08 | 87 | 1018.1 |
| 20260502051319 | 13 | 35 | 14.5 | 20.9 | 0.00 | 0.08 | 0.08 | 87 | 1018.1 |
| 20260502050314 | 13 | 49 | 16.1 | 24.1 | 0.00 | 0.08 | 0.08 | 87 | 1018.0 |
| 20260502045330 | 13 | 24 | 14.5 | 20.9 | 0.00 | 0.08 | 0.08 | 87 | 1018.2 |
| 20260502044329 | 13 | 22 | 14.5 | 30.6 | 0.00 | 0.08 | 0.08 | 87 | 1018.2 |
| 20260502043324 | 13 | 47 | 16.1 | 24.1 | 0.00 | 0.08 | 0.08 | 87 | 1018.3 |
| 20260502042317 | 13 | 37 | 17.7 | 25.7 | 0.00 | 0.08 | 0.08 | 87 | 1018.2 |
| 20260502041331 | 13 | 32 | 19.3 | 30.6 | 0.00 | 0.08 | 0.08 | 87 | 1018.3 |
| 20260502040329 | 13 | 42 | 19.3 | 32.2 | 0.00 | 0.08 | 0.08 | 87 | 1018.4 |
| 20260502035323 | 13 | 15 | 19.3 | 32.2 | 0.00 | 0.08 | 0.08 | 87 | 1018.3 |
| 20260502034317 | 13 | 30 | 24.1 | 33.8 | 0.00 | 0.08 | 0.08 | 87 | 1018.3 |
| 20260502033315 | 13 | 24 | 19.3 | 27.4 | 0.00 | 0.08 | 0.08 | 87 | 1018.1 |
| 20260502032329 | 13 | 16 | 20.9 | 30.6 | 0.00 | 0.10 | 0.08 | 87 | 1017.9 |
| 20260502031325 | 13 | 21 | 24.1 | 32.2 | 0.00 | 0.10 | 0.08 | 87 | 1017.6 |
| 20260502030320 | 13 | 22 | 24.1 | 33.8 | 0.00 | 0.10 | 0.08 | 87 | 1017.0 |
| 20260502025319 | 13 | 27 | 25.7 | 33.8 | 0.00 | 0.10 | 0.08 | 87 | 1016.8 |
| 20260502024334 | 14 | 29 | 27.4 | 32.2 | 0.00 | 0.10 | 0.08 | 87 | 1017.0 |
| 20260502023329 | 14 | 19 | 22.5 | 32.2 | 0.00 | 0.10 | 0.08 | 87 | 1017.0 |
| 20260502022327 | 14 | 11 | 25.7 | 35.4 | 0.00 | 0.10 | 0.08 | 87 | 1016.8 |
| 20260502021322 | 14 | 14 | 24.1 | 30.6 | 0.00 | 0.10 | 0.08 | 87 | 1016.8 |
| 20260502020315 | 14 | 13 | 22.5 | 30.6 | 0.00 | 0.10 | 0.08 | 87 | 1016.7 |
| 20260502015329 | 14 | 30 | 24.1 | 33.8 | 0.00 | 0.10 | 0.08 | 87 | 1016.1 |
| 20260502014329 | 14 | 17 | 24.1 | 35.4 | 0.00 | 0.10 | 0.08 | 87 | 1015.9 |
| 20260502013324 | 14 | 19 | 27.4 | 32.2 | 0.00 | 0.10 | 0.08 | 87 | 1015.7 |
| 20260502012317 | 14 | 348 | 25.7 | 32.2 | 0.00 | 0.10 | 0.08 | 87 | 1015.8 |
| 20260502011316 | 14 | 5 | 24.1 | 29.0 | 0.00 | 0.10 | 0.08 | 87 | 1015.7 |
| 20260502010330 | 14 | 28 | 22.5 | 30.6 | 0.00 | 0.10 | 0.08 | 87 | 1015.8 |
| 20260502005323 | 14 | 5 | 24.1 | 32.2 | 0.00 | 0.10 | 0.08 | 87 | 1015.7 |
| 20260502004321 | 13 | 11 | 19.3 | 27.4 | 0.00 | 0.10 | 0.08 | 87 | 1015.5 |
| 20260502003316 | 13 | 18 | 17.7 | 25.7 | 0.00 | 0.10 | 0.08 | 87 | 1015.4 |
| 20260502002330 | 13 | 9 | 17.7 | 24.1 | 0.00 | 0.10 | 0.08 | 87 | 1015.3 |
| 20260502001323 | 13 | 29 | 16.1 | 22.5 | 0.00 | 0.10 | 0.08 | 87 | 1015.3 |
| 20260502000321 | 13 | 23 | 16.1 | 25.7 | 0.00 | 0.10 | 0.08 | 87 | 1015.1 |
| 20260501235314 | 13 | 63 | 17.7 | 27.4 | 0.00 | 0.10 | 0.08 | 87 | 1014.1 |
| 20260501234328 | 13 | 47 | 14.5 | 25.7 | 0.00 | 0.10 | 0.08 | 87 | 1014.3 |
| 20260501233328 | 14 | 15 | 19.3 | 29.0 | 0.00 | 0.10 | 0.08 | 87 | 1014.2 |
| 20260501232323 | 14 | 42 | 22.5 | 35.4 | 0.00 | 0.10 | 0.08 | 87 | 1013.3 |
| 20260501231315 | 14 | 44 | 25.7 | 32.2 | 0.00 | 0.10 | 0.08 | 87 | 1013.1 |
| 20260501230329 | 14 | 38 | 20.9 | 32.2 | 0.00 | 0.10 | 0.08 | 87 | 1013.2 |
| 20260501225327 | 14 | 51 | 24.1 | 30.6 | 0.00 | 0.10 | 0.08 | 87 | 1013.2 |
| 20260501224320 | 14 | 59 | 25.7 | 33.8 | 0.00 | 0.10 | 0.08 | 87 | 1012.6 |
| 20260501223314 | 15 | 35 | 25.7 | 30.6 | 0.00 | 0.10 | 0.08 | 87 | 1013.4 |
| 20260501222332 | 15 | 55 | 20.9 | 27.4 | 0.00 | 0.10 | 0.08 | 87 | 1014.8 |
| 20260501221326 | 15 | 32 | 20.9 | 29.0 | 0.00 | 0.10 | 0.08 | 87 | 1014.0 |
| 20260501220322 | 15 | 15 | 25.7 | 30.6 | 0.00 | 0.10 | 0.08 | 87 | 1014.0 |
| 20260501215318 | 15 | 21 | 24.1 | 32.2 | 0.00 | 0.10 | 0.08 | 87 | 1014.3 |
| 20260501214317 | 15 | 32 | 19.3 | 29.0 | 0.00 | 0.10 | 0.08 | 87 | 1013.9 |
| 20260501213333 | 15 | 39 | 25.7 | 32.2 | 0.00 | 0.10 | 0.08 | 87 | 1012.9 |
| 20260501212330 | 15 | 32 | 24.1 | 29.0 | 0.00 | 0.13 | 0.08 | 87 | 1012.5 |
| 20260501211328 | 15 | 39 | 22.5 | 29.0 | 0.00 | 0.13 | 0.08 | 87 | 1012.9 |
| 20260501210323 | 15 | 16 | 20.9 | 25.7 | 0.00 | 0.13 | 0.08 | 87 | 1012.9 |
| 20260501205317 | 15 | 39 | 17.7 | 25.7 | 0.00 | 0.13 | 0.08 | 86 | 1013.3 |
| 20260501204317 | 15 | 49 | 20.9 | 27.4 | 0.00 | 0.13 | 0.08 | 86 | 1013.2 |
| 20260501203331 | 15 | 44 | 17.7 | 27.4 | 0.00 | 0.13 | 0.08 | 86 | 1013.3 |
| 20260501202325 | 15 | 30 | 20.9 | 30.6 | 0.00 | 0.15 | 0.08 | 87 | 1013.1 |
| 20260501201319 | 15 | 23 | 22.5 | 29.0 | 0.00 | 0.15 | 0.08 | 87 | 1012.9 |
| 20260501200318 | 15 | 30 | 17.7 | 22.5 | 0.00 | 0.15 | 0.08 | 87 | 1012.8 |
| 20260501195314 | 16 | 23 | 17.7 | 22.5 | 0.00 | 0.15 | 0.08 | 87 | 1012.9 |
| 20260501194330 | 16 | 34 | 22.5 | 27.4 | 0.03 | 0.15 | 0.08 | 87 | 1012.1 |
| 20260501193330 | 15 | 61 | 22.5 | 29.0 | 0.03 | 0.15 | 0.08 | 87 | 1012.3 |
| 20260501192325 | 15 | 68 | 25.7 | 32.2 | 0.03 | 0.18 | 0.08 | 87 | 1012.2 |
| 20260501191321 | 16 | 67 | 29.0 | 38.6 | 0.03 | 0.18 | 0.08 | 86 | 1011.3 |
| 20260501190315 | 16 | 80 | 32.2 | 38.6 | 0.03 | 0.18 | 0.08 | 86 | 1010.9 |
| 20260501185334 | 16 | 63 | 25.7 | 45.1 | 0.03 | 0.18 | 0.08 | 86 | 1011.0 |
| 20260501184329 | 16 | 54 | 37.0 | 46.7 | 0.00 | 0.15 | 0.05 | 86 | 1010.5 |
| 20260501183325 | 16 | 53 | 32.2 | 43.5 | 0.00 | 0.15 | 0.05 | 86 | 1010.7 |
| 20260501182324 | 16 | 46 | 30.6 | 41.8 | 0.00 | 0.15 | 0.05 | 86 | 1011.3 |
| 20260501181319 | 16 | 46 | 32.2 | 40.2 | 0.00 | 0.15 | 0.05 | 86 | 1011.8 |
| 20260501180315 | 16 | 28 | 27.4 | 32.2 | 0.00 | 0.15 | 0.05 | 86 | 1012.7 |
| 20260501175314 | 16 | 27 | 22.5 | 37.0 | 0.00 | 0.15 | 0.05 | 86 | 1013.3 |
| 20260501174331 | 16 | 21 | 30.6 | 38.6 | 0.00 | 0.15 | 0.05 | 86 | 1012.8 |
| 20260501173326 | 16 | 32 | 25.7 | 35.4 | 0.00 | 0.15 | 0.05 | 86 | 1013.1 |
| 20260501172322 | 16 | 18 | 22.5 | 29.0 | 0.03 | 0.15 | 0.05 | 86 | 1013.6 |
| 20260501171322 | 16 | 45 | 22.5 | 27.4 | 0.03 | 0.15 | 0.05 | 86 | 1014.0 |
| 20260501170318 | 15 | 54 | 17.7 | 25.7 | 0.03 | 0.15 | 0.05 | 86 | 1014.3 |
| 20260501165333 | 16 | 35 | 16.1 | 24.1 | 0.03 | 0.15 | 0.05 | 86 | 1014.7 |
| 20260501164332 | 16 | 35 | 17.7 | 27.4 | 0.03 | 0.15 | 0.05 | 86 | 1015.1 |
| 20260501163328 | 16 | 27 | 19.3 | 25.7 | 0.03 | 0.15 | 0.05 | 86 | 1015.3 |
| 20260501162324 | 16 | 5 | 14.5 | 20.9 | 0.00 | 0.15 | 0.03 | 86 | 1015.5 |
| 20260501161320 | 16 | 50 | 12.9 | 22.5 | 0.00 | 0.15 | 0.03 | 86 | 1015.6 |
| 20260501160319 | 16 | 26 | 14.5 | 22.5 | 0.00 | 0.15 | 0.03 | 86 | 1015.4 |
| 20260501155315 | 16 | 5 | 14.5 | 19.3 | 0.03 | 0.15 | 0.03 | 86 | 1015.2 |
| 20260501154330 | 16 | 32 | 14.5 | 19.3 | 0.03 | 0.15 | 0.03 | 86 | 1015.1 |